20040714,000013,95069,32.348667,-118.545500,NaN,18.979,33.355,44.912,  NaN,0.0, NaN, NaN, NaN, NaN,23.769,412.037,17.30,1011.98,89.00,NaN,310.0,NaN,7.5,NaN,309.6,NaN,7.1,NaN,NaN, NaN,NaN,104.0,NaN,NaN,NaN,2,0.9,000011,   NaN,2.8,     NaN,      NaN,NaN,0.3,NaN,18.983, NaN,NaN,NaN, NaN, NaN
20040714,000043,95099,32.348500,-118.545333,NaN,18.979,33.355,44.912,  NaN,0.0, NaN, NaN, NaN, NaN,23.769,412.057,17.40,1012.03,89.50,NaN,311.0,NaN,6.8,NaN,312.3,NaN,6.5,NaN,NaN, NaN,NaN,108.0,NaN,NaN,NaN,2,1.0,000041,   NaN,5.2,     NaN,      NaN,NaN,0.7,NaN,18.984, NaN,NaN,NaN, NaN, NaN
20040714,000113,95129,32.348500,-118.545167,NaN,18.980,33.355,44.913,  NaN,0.0, NaN, NaN, NaN, NaN,23.769,412.079,17.40,1011.94,89.00,NaN,304.0,NaN,8.7,NaN,306.3,NaN,8.4,NaN,NaN, NaN,NaN,143.0,NaN,NaN,NaN,2,1.0,000071,   NaN,5.8,     NaN,      NaN,NaN,0.6,NaN,18.985, NaN,NaN,NaN, NaN, NaN
20040714,000143,95159,32.348500,-118.545000,NaN,18.980,33.354,44.912,  NaN,0.0, NaN, NaN, NaN, NaN,23.769,412.122,17.40,1012.00,88.80,NaN,301.0,NaN,7.5,NaN,300.0,NaN,7.1,NaN,NaN, NaN,NaN,72.0,NaN,NaN,NaN,2,1.7,000101,   NaN,4.7,     NaN,      NaN,NaN,0.4,NaN,18.984, NaN,NaN,NaN, NaN, NaN
20040714,000213,95189,32.348500,-118.544667,NaN,18.978,33.355,44.910,  NaN,0.0, NaN, NaN, NaN, NaN,23.770,411.998,17.40,1012.02,89.00,NaN,307.0,NaN,8.1,NaN,306.3,NaN,7.8,NaN,NaN, NaN,NaN,54.0,NaN,NaN,NaN,2,0.9,000131,   NaN,2.3,     NaN,      NaN,NaN,0.5,NaN,18.982, NaN,NaN,NaN, NaN, NaN
20040714,000243,95219,32.348667,-118.544667,NaN,18.977,33.355,44.910,  NaN,0.0, NaN, NaN, NaN, NaN,23.770,411.975,17.40,1011.94,88.50,NaN,313.0,NaN,8.2,NaN,308.1,NaN,7.9,NaN,NaN, NaN,NaN,69.0,NaN,NaN,NaN,2,0.8,000161,   NaN,357.8,     NaN,      NaN,NaN,0.4,NaN,18.981, NaN,NaN,NaN, NaN, NaN
20040714,000313,95249,32.348667,-118.544500,NaN,18.976,33.355,44.908,  NaN,0.0, NaN, NaN, NaN, NaN,23.770,411.955,17.30,1012.07,88.50,NaN,313.0,NaN,8.7,NaN,305.0,NaN,8.4,NaN,NaN, NaN,NaN,81.0,NaN,NaN,NaN,2,0.8,000191,   NaN,354.3,     NaN,      NaN,NaN,0.4,NaN,18.980, NaN,NaN,NaN, NaN, NaN
20040714,000343,95279,32.348667,-118.544333,NaN,18.977,33.355,44.910,  NaN,0.0, NaN, NaN, NaN, NaN,23.770,411.976,17.30,1012.05,88.80,NaN,316.0,NaN,7.6,NaN,307.5,NaN,7.3,NaN,NaN, NaN,NaN,90.0,NaN,NaN,NaN,2,0.9,000221,   NaN,354.0,     NaN,      NaN,NaN,0.5,NaN,18.981, NaN,NaN,NaN, NaN, NaN
20040714,000413,95309,32.348667,-118.544167,NaN,18.981,33.355,44.914,  NaN,0.0, NaN, NaN, NaN, NaN,23.769,412.098,17.40,1011.98,89.40,NaN,310.0,NaN,7.5,NaN,303.0,NaN,7.2,NaN,NaN, NaN,NaN,93.0,NaN,NaN,NaN,2,0.8,000251,   NaN,355.4,     NaN,      NaN,NaN,0.5,NaN,18.986, NaN,NaN,NaN, NaN, NaN
20040714,000443,95339,32.348667,-118.544000,NaN,18.980,33.355,44.913,  NaN,0.0, NaN, NaN, NaN, NaN,23.769,412.079,17.60,1012.03,89.40,NaN,315.0,NaN,6.2,NaN,303.6,NaN,5.7,NaN,NaN, NaN,NaN,125.0,NaN,NaN,NaN,2,1.4,000281,   NaN,353.3,     NaN,      NaN,NaN,0.3,NaN,18.985, NaN,NaN,NaN, NaN, NaN
20040714,000513,95369,32.348667,-118.543833,NaN,18.980,33.355,44.913,  NaN,0.0, NaN, NaN, NaN, NaN,23.769,412.059,17.60,1011.87,88.90,NaN,322.0,NaN,7.8,NaN,311.4,NaN,7.6,NaN,NaN, NaN,NaN,131.0,NaN,NaN,NaN,2,0.7,000311,   NaN,350.8,     NaN,      NaN,NaN,0.4,NaN,18.984, NaN,NaN,NaN, NaN, NaN
20040714,000543,95399,32.348667,-118.543833,NaN,18.984,33.354,44.916,  NaN,0.0, NaN, NaN, NaN, NaN,23.768,412.179,17.40,1012.01,89.20,NaN,317.0,NaN,8.6,NaN,302.2,NaN,8.3,NaN,NaN, NaN,NaN,86.0,NaN,NaN,NaN,2,0.7,000341,   NaN,347.1,     NaN,      NaN,NaN,0.3,NaN,18.988, NaN,NaN,NaN, NaN, NaN
20040714,000613,95429,32.348833,-118.543667,NaN,18.985,33.355,44.917,  NaN,0.0, NaN, NaN, NaN, NaN,23.768,412.180,17.40,1011.95,89.20,NaN,319.0,NaN,7.2,NaN,302.4,NaN,6.9,NaN,NaN, NaN,NaN,71.0,NaN,NaN,NaN,2,0.7,000371,   NaN,345.8,     NaN,      NaN,NaN,0.4,NaN,18.989, NaN,NaN,NaN, NaN, NaN
20040714,000643,95459,32.348833,-118.543500,NaN,18.985,33.355,44.918,  NaN,0.0, NaN, NaN, NaN, NaN,23.768,412.200,17.40,1011.99,88.90,NaN,306.0,NaN,8.5,NaN,288.6,NaN,8.1,NaN,NaN, NaN,NaN,83.0,NaN,NaN,NaN,2,1.4,000401,   NaN,347.3,     NaN,      NaN,NaN,0.3,NaN,18.990, NaN,NaN,NaN, NaN, NaN
20040714,000713,95489,32.348833,-118.543333,NaN,18.985,33.355,44.917,  NaN,0.0, NaN, NaN, NaN, NaN,23.768,412.178,17.30,1011.92,88.80,NaN,311.0,NaN,8.3,NaN,301.0,NaN,8.0,NaN,NaN, NaN,NaN,84.0,NaN,NaN,NaN,2,0.9,000431,   NaN,353.1,     NaN,      NaN,NaN,0.4,NaN,18.989, NaN,NaN,NaN, NaN, NaN
20040714,000743,95519,32.348833,-118.543167,NaN,18.984,33.355,44.916,  NaN,0.0, NaN, NaN, NaN, NaN,23.768,412.159,17.30,1011.91,89.30,NaN,313.0,NaN,8.0,NaN,308.7,NaN,7.7,NaN,NaN, NaN,NaN,99.0,NaN,NaN,NaN,2,1.1,000461,   NaN,358.2,     NaN,      NaN,NaN,0.4,NaN,18.989, NaN,NaN,NaN, NaN, NaN
20040714,000813,95549,32.348833,-118.543000,NaN,18.982,33.355,44.915,  NaN,0.0, NaN, NaN, NaN, NaN,23.769,412.097,17.40,1011.97,88.80,NaN,306.0,NaN,7.0,NaN,304.8,NaN,6.7,NaN,NaN, NaN,NaN,103.0,NaN,NaN,NaN,2,1.1,000491,   NaN,2.8,     NaN,      NaN,NaN,0.4,NaN,18.987, NaN,NaN,NaN, NaN, NaN
20040714,000843,95579,32.348833,-118.542833,NaN,18.978,33.355,44.911,  NaN,0.0, NaN, NaN, NaN, NaN,23.769,412.039,17.30,1012.02,88.90,NaN,303.0,NaN,7.8,NaN,306.6,NaN,7.5,NaN,NaN, NaN,NaN,107.0,NaN,NaN,NaN,2,1.1,000521,   NaN,7.2,     NaN,      NaN,NaN,0.4,NaN,18.983, NaN,NaN,NaN, NaN, NaN
20040714,000913,95609,32.348833,-118.542667,NaN,18.974,33.355,44.907,  NaN,0.0, NaN, NaN, NaN, NaN,23.771,411.895,17.30,1012.01,89.00,NaN,297.0,NaN,7.2,NaN,300.3,NaN,6.8,NaN,NaN, NaN,NaN,116.0,NaN,NaN,NaN,2,1.4,000551,   NaN,9.1,     NaN,      NaN,NaN,0.2,NaN,18.979, NaN,NaN,NaN, NaN, NaN
20040714,000943,95639,32.348833,-118.542500,NaN,18.971,33.355,44.905,  NaN,0.0, NaN, NaN, NaN, NaN,23.772,411.813,17.40,1012.02,89.30,NaN,297.0,NaN,8.2,NaN,304.8,NaN,8.0,NaN,NaN, NaN,NaN,117.0,NaN,NaN,NaN,2,0.9,000581,   NaN,11.1,     NaN,      NaN,NaN,0.5,NaN,18.976, NaN,NaN,NaN, NaN, NaN
20040714,001013,95669,32.348667,-118.542333,NaN,18.972,33.355,44.904,  NaN,0.0, NaN, NaN, NaN, NaN,23.771,411.877,17.40,1011.94,89.00,NaN,293.0,NaN,8.5,NaN,301.5,NaN,8.3,NaN,NaN, NaN,NaN,104.0,NaN,NaN,NaN,2,1.0,000611,   NaN,11.9,     NaN,      NaN,NaN,0.2,NaN,18.976, NaN,NaN,NaN, NaN, NaN
20040714,001043,95699,32.348667,-118.542167,NaN,18.973,33.355,44.905,  NaN,0.0, NaN, NaN, NaN, NaN,23.771,411.897,17.40,1011.96,89.20,NaN,285.0,NaN,6.6,NaN,290.4,NaN,6.5,NaN,NaN, NaN,NaN,92.0,NaN,NaN,NaN,2,1.2,000641,   NaN,9.8,     NaN,      NaN,NaN,0.5,NaN,18.977, NaN,NaN,NaN, NaN, NaN
20040714,001113,95729,32.348667,-118.542000,NaN,18.974,33.355,44.907,  NaN,0.0, NaN, NaN, NaN, NaN,23.771,411.896,17.40,1011.78,88.90,NaN,306.0,NaN,8.0,NaN,312.2,NaN,7.7,NaN,NaN, NaN,NaN,41.0,NaN,NaN,NaN,2,1.1,000671,   NaN,9.6,     NaN,      NaN,NaN,0.3,NaN,18.979, NaN,NaN,NaN, NaN, NaN
20040714,001143,95759,32.348667,-118.541833,NaN,18.974,33.355,44.908,  NaN,0.0, NaN, NaN, NaN, NaN,23.771,411.875,17.40,1011.88,88.60,NaN,311.0,NaN,7.9,NaN,316.0,NaN,7.6,NaN,NaN, NaN,NaN,70.0,NaN,NaN,NaN,2,0.8,000701,   NaN,7.6,     NaN,      NaN,NaN,0.5,NaN,18.979, NaN,NaN,NaN, NaN, NaN
20040714,001213,95789,32.348667,-118.541667,NaN,18.973,33.355,44.907,  NaN,0.0, NaN, NaN, NaN, NaN,23.771,411.853,17.40,1011.90,88.90,NaN,309.0,NaN,8.0,NaN,309.7,NaN,7.7,NaN,NaN, NaN,NaN,109.0,NaN,NaN,NaN,2,1.1,000731,   NaN,4.0,     NaN,      NaN,NaN,0.5,NaN,18.978, NaN,NaN,NaN, NaN, NaN
20040714,001243,95819,32.348833,-118.541500,NaN,18.976,33.355,44.909,  NaN,0.0, NaN, NaN, NaN, NaN,23.770,411.956,17.40,1011.84,88.80,NaN,311.0,NaN,9.1,NaN,305.6,NaN,8.8,NaN,NaN, NaN,NaN,36.0,NaN,NaN,NaN,2,0.9,000761,   NaN,356.9,     NaN,      NaN,NaN,0.6,NaN,18.980, NaN,NaN,NaN, NaN, NaN
20040714,001313,95849,32.348833,-118.541500,NaN,18.979,33.355,44.911,  NaN,0.0, NaN, NaN, NaN, NaN,23.769,412.038,17.30,1011.93,88.40,NaN,314.0,NaN,8.8,NaN,301.6,NaN,8.5,NaN,NaN, NaN,NaN,49.0,NaN,NaN,NaN,2,1.0,000791,   NaN,349.9,     NaN,      NaN,NaN,0.5,NaN,18.983, NaN,NaN,NaN, NaN, NaN
20040714,001343,95879,32.348833,-118.541333,NaN,18.981,33.355,44.914,  NaN,0.0, NaN, NaN, NaN, NaN,23.769,412.055,17.30,1011.92,88.80,NaN,321.0,NaN,8.0,NaN,306.8,NaN,7.7,NaN,NaN, NaN,NaN,56.0,NaN,NaN,NaN,2,0.9,000821,   NaN,347.2,     NaN,      NaN,NaN,0.5,NaN,18.986, NaN,NaN,NaN, NaN, NaN
20040714,001413,95909,32.349000,-118.541167,NaN,18.983,33.355,44.916,  NaN,0.0, NaN, NaN, NaN, NaN,23.769,412.116,17.30,1011.93,89.00,NaN,326.0,NaN,8.3,NaN,306.1,NaN,8.0,NaN,NaN, NaN,NaN,42.0,NaN,NaN,NaN,2,0.8,000851,   NaN,341.8,     NaN,      NaN,NaN,0.5,NaN,18.988, NaN,NaN,NaN, NaN, NaN
20040714,001443,95939,32.349000,-118.541167,NaN,18.982,33.355,44.915,  NaN,0.0, NaN, NaN, NaN, NaN,23.769,412.117,17.30,1011.86,88.50,NaN,330.0,NaN,8.6,NaN,306.4,NaN,8.2,NaN,NaN, NaN,NaN,58.0,NaN,NaN,NaN,2,0.9,000881,   NaN,338.2,     NaN,      NaN,NaN,0.5,NaN,18.987, NaN,NaN,NaN, NaN, NaN
20040714,001513,95969,32.349167,-118.541000,NaN,18.980,33.354,44.913,  NaN,0.0, NaN, NaN, NaN, NaN,23.769,412.100,17.20,1011.83,88.30,NaN,327.0,NaN,8.4,NaN,303.7,NaN,8.1,NaN,NaN, NaN,NaN,75.0,NaN,NaN,NaN,2,0.8,000911,   NaN,338.3,     NaN,      NaN,NaN,0.5,NaN,18.985, NaN,NaN,NaN, NaN, NaN
20040714,001543,95999,32.349167,-118.541000,NaN,18.978,33.354,44.910,  NaN,0.0, NaN, NaN, NaN, NaN,23.769,412.059,17.30,1011.79,88.60,NaN,328.0,NaN,8.8,NaN,310.6,NaN,8.4,NaN,NaN, NaN,NaN,5.0,NaN,NaN,NaN,2,0.8,000941,   NaN,344.0,     NaN,      NaN,NaN,0.4,NaN,18.983, NaN,NaN,NaN, NaN, NaN
20040714,001613,96029,32.349167,-118.540833,NaN,18.983,33.353,44.914,  NaN,0.0, NaN, NaN, NaN, NaN,23.767,412.223,17.30,1011.89,89.20,NaN,316.0,NaN,8.6,NaN,301.4,NaN,8.2,NaN,NaN, NaN,NaN,66.0,NaN,NaN,NaN,2,1.1,000971,   NaN,348.7,     NaN,      NaN,NaN,0.3,NaN,18.987, NaN,NaN,NaN, NaN, NaN
20040714,001643,96059,32.349167,-118.540667,NaN,18.989,33.354,44.920,  NaN,0.0, NaN, NaN, NaN, NaN,23.767,412.321,17.20,1011.81,88.30,NaN,316.0,NaN,8.6,NaN,307.6,NaN,8.3,NaN,NaN, NaN,NaN,121.0,NaN,NaN,NaN,2,0.8,001001,   NaN,353.8,     NaN,      NaN,NaN,0.5,NaN,18.993, NaN,NaN,NaN, NaN, NaN
20040714,001713,96089,32.349333,-118.540500,NaN,18.995,33.353,44.925,  NaN,0.0, NaN, NaN, NaN, NaN,23.764,412.527,17.30,1011.85,89.30,NaN,308.0,NaN,7.3,NaN,299.6,NaN,6.9,NaN,NaN, NaN,NaN,72.0,NaN,NaN,NaN,2,1.4,001031,   NaN,356.0,     NaN,      NaN,NaN,0.3,NaN,18.999, NaN,NaN,NaN, NaN, NaN
20040714,001743,96119,32.349333,-118.540333,NaN,18.998,33.354,44.929,  NaN,0.0, NaN, NaN, NaN, NaN,23.764,412.589,17.40,1011.87,89.40,NaN,301.0,NaN,7.2,NaN,296.7,NaN,6.9,NaN,NaN, NaN,NaN,94.0,NaN,NaN,NaN,2,1.2,001061,   NaN,0.3,     NaN,      NaN,NaN,0.4,NaN,19.003, NaN,NaN,NaN, NaN, NaN
20040714,001813,96149,32.349333,-118.540167,NaN,19.004,33.353,44.934,  NaN,0.0, NaN, NaN, NaN, NaN,23.762,412.769,17.40,1011.75,89.40,NaN,301.0,NaN,8.5,NaN,303.3,NaN,8.3,NaN,NaN, NaN,NaN,98.0,NaN,NaN,NaN,2,1.0,001091,   NaN,5.3,     NaN,      NaN,NaN,0.3,NaN,19.008, NaN,NaN,NaN, NaN, NaN
20040714,001843,96179,32.349333,-118.540000,NaN,19.005,33.353,44.935,  NaN,0.0, NaN, NaN, NaN, NaN,23.762,412.768,17.30,1011.78,88.50,NaN,300.0,NaN,8.1,NaN,300.9,NaN,7.9,NaN,NaN, NaN,NaN,91.0,NaN,NaN,NaN,2,1.1,001121,   NaN,4.5,     NaN,      NaN,NaN,0.4,NaN,19.010, NaN,NaN,NaN, NaN, NaN
20040714,001913,96209,32.349333,-118.539833,NaN,19.003,33.354,44.934,  NaN,0.0, NaN, NaN, NaN, NaN,23.763,412.667,17.40,1011.85,89.00,NaN,308.0,NaN,7.9,NaN,307.1,NaN,7.5,NaN,NaN, NaN,NaN,86.0,NaN,NaN,NaN,2,1.3,001151,   NaN,2.9,     NaN,      NaN,NaN,0.4,NaN,19.007, NaN,NaN,NaN, NaN, NaN
20040714,001943,96239,32.349333,-118.539667,NaN,19.002,33.353,44.932,  NaN,0.0, NaN, NaN, NaN, NaN,23.762,412.710,17.30,1011.82,88.90,NaN,302.0,NaN,9.2,NaN,301.3,NaN,8.9,NaN,NaN, NaN,NaN,86.0,NaN,NaN,NaN,2,0.9,001181,   NaN,2.4,     NaN,      NaN,NaN,0.3,NaN,19.007, NaN,NaN,NaN, NaN, NaN
20040714,002013,96269,32.349333,-118.539500,NaN,19.007,33.354,44.937,  NaN,0.0, NaN, NaN, NaN, NaN,23.762,412.787,17.30,1011.83,89.20,NaN,294.0,NaN,8.5,NaN,293.5,NaN,8.3,NaN,NaN, NaN,NaN,96.0,NaN,NaN,NaN,2,1.5,001211,   NaN,4.4,     NaN,      NaN,NaN,0.5,NaN,19.011, NaN,NaN,NaN, NaN, NaN
20040714,002043,96299,32.349333,-118.539333,NaN,19.011,33.353,44.941,  NaN,0.0, NaN, NaN, NaN, NaN,23.760,412.953,17.40,1011.73,89.20,NaN,307.0,NaN,8.9,NaN,310.2,NaN,8.6,NaN,NaN, NaN,NaN,38.0,NaN,NaN,NaN,2,1.1,001241,   NaN,6.2,     NaN,      NaN,NaN,0.6,NaN,19.016, NaN,NaN,NaN, NaN, NaN
20040714,002113,96329,32.349333,-118.539167,NaN,19.015,33.353,44.945,  NaN,0.0, NaN, NaN, NaN, NaN,23.759,413.013,17.60,1011.80,88.90,NaN,299.0,NaN,7.4,NaN,297.9,NaN,7.1,NaN,NaN, NaN,NaN,86.0,NaN,NaN,NaN,2,1.3,001271,   NaN,3.1,     NaN,      NaN,NaN,0.4,NaN,19.020, NaN,NaN,NaN, NaN, NaN
20040714,002143,96359,32.349333,-118.539000,NaN,19.013,33.354,44.943,  NaN,0.0, NaN, NaN, NaN, NaN,23.760,412.911,17.40,1011.76,88.40,NaN,310.0,NaN,7.4,NaN,305.3,NaN,7.0,NaN,NaN, NaN,NaN,94.0,NaN,NaN,NaN,2,1.3,001301,   NaN,358.8,     NaN,      NaN,NaN,0.4,NaN,19.017, NaN,NaN,NaN, NaN, NaN
20040714,002213,96389,32.349333,-118.538833,NaN,19.013,33.353,44.943,  NaN,0.0, NaN, NaN, NaN, NaN,23.759,412.993,17.30,1011.65,89.00,NaN,317.0,NaN,7.5,NaN,309.4,NaN,7.0,NaN,NaN, NaN,NaN,136.0,NaN,NaN,NaN,2,1.2,001331,   NaN,355.8,     NaN,      NaN,NaN,0.5,NaN,19.018, NaN,NaN,NaN, NaN, NaN
20040714,002243,96419,32.349333,-118.538667,NaN,19.019,33.353,44.948,  NaN,0.0, NaN, NaN, NaN, NaN,23.758,413.114,17.40,1011.74,89.40,NaN,316.0,NaN,8.4,NaN,307.7,NaN,8.1,NaN,NaN, NaN,NaN,71.0,NaN,NaN,NaN,2,0.8,001361,   NaN,353.7,     NaN,      NaN,NaN,0.6,NaN,19.023, NaN,NaN,NaN, NaN, NaN
20040714,002313,96449,32.349500,-118.538500,NaN,19.017,33.354,44.947,  NaN,0.0, NaN, NaN, NaN, NaN,23.759,413.012,17.40,1011.83,89.00,NaN,315.0,NaN,7.0,NaN,303.8,NaN,6.7,NaN,NaN, NaN,NaN,71.0,NaN,NaN,NaN,2,1.0,001391,   NaN,352.2,     NaN,      NaN,NaN,0.6,NaN,19.021, NaN,NaN,NaN, NaN, NaN
20040714,002343,96479,32.349500,-118.538500,NaN,19.014,33.354,44.944,  NaN,0.0, NaN, NaN, NaN, NaN,23.760,412.973,17.40,1011.75,88.90,NaN,321.0,NaN,8.4,NaN,305.9,NaN,8.1,NaN,NaN, NaN,NaN,61.0,NaN,NaN,NaN,2,0.8,001421,   NaN,346.7,     NaN,      NaN,NaN,0.3,NaN,19.019, NaN,NaN,NaN, NaN, NaN
20040714,002413,96509,32.349500,-118.538333,NaN,19.013,33.354,44.943,  NaN,0.0, NaN, NaN, NaN, NaN,23.760,412.910,17.30,1011.73,89.20,NaN,322.0,NaN,6.9,NaN,302.5,NaN,6.7,NaN,NaN, NaN,NaN,56.0,NaN,NaN,NaN,2,0.8,001451,   NaN,342.4,     NaN,      NaN,NaN,0.6,NaN,19.017, NaN,NaN,NaN, NaN, NaN
20040714,002443,96539,32.349667,-118.538167,NaN,19.011,33.353,44.941,  NaN,0.0, NaN, NaN, NaN, NaN,23.760,412.931,17.30,1011.80,88.90,NaN,317.0,NaN,9.2,NaN,293.1,NaN,8.8,NaN,NaN, NaN,NaN,6.0,NaN,NaN,NaN,2,1.2,001481,   NaN,338.8,     NaN,      NaN,NaN,0.5,NaN,19.016, NaN,NaN,NaN, NaN, NaN
20040714,002513,96569,32.349667,-118.538167,NaN,19.008,33.354,44.938,  NaN,0.0, NaN, NaN, NaN, NaN,23.761,412.809,17.30,1011.80,89.50,NaN,324.0,NaN,7.4,NaN,299.4,NaN,6.9,NaN,NaN, NaN,NaN,88.0,NaN,NaN,NaN,2,1.2,001511,   NaN,337.6,     NaN,      NaN,NaN,0.5,NaN,19.012, NaN,NaN,NaN, NaN, NaN
20040714,002543,96599,32.349667,-118.538000,NaN,19.008,33.353,44.938,  NaN,0.0, NaN, NaN, NaN, NaN,23.761,412.872,17.40,1011.80,89.30,NaN,328.0,NaN,8.6,NaN,301.6,NaN,8.4,NaN,NaN, NaN,NaN,50.0,NaN,NaN,NaN,2,0.7,001541,   NaN,334.7,     NaN,      NaN,NaN,0.3,NaN,19.013, NaN,NaN,NaN, NaN, NaN
20040714,002613,96629,32.349833,-118.538000,NaN,19.011,33.353,44.940,  NaN,0.0, NaN, NaN, NaN, NaN,23.760,412.913,17.40,1011.79,89.50,NaN,325.0,NaN,8.8,NaN,296.2,NaN,8.5,NaN,NaN, NaN,NaN,44.0,NaN,NaN,NaN,2,0.8,001571,   NaN,332.8,     NaN,      NaN,NaN,0.1,NaN,19.015, NaN,NaN,NaN, NaN, NaN
20040714,002643,96659,32.349833,-118.538000,NaN,19.009,33.354,44.939,  NaN,0.0, NaN, NaN, NaN, NaN,23.761,412.849,17.30,1011.75,88.90,NaN,327.0,NaN,7.5,NaN,301.3,NaN,7.2,NaN,NaN, NaN,NaN,72.0,NaN,NaN,NaN,2,0.7,001601,   NaN,335.0,     NaN,      NaN,NaN,0.4,NaN,19.013, NaN,NaN,NaN, NaN, NaN
20040714,002713,96689,32.349833,-118.538000,NaN,19.009,33.353,44.938,  NaN,0.0, NaN, NaN, NaN, NaN,23.761,412.891,17.40,1011.77,89.70,NaN,324.0,NaN,7.2,NaN,300.1,NaN,6.9,NaN,NaN, NaN,NaN,105.0,NaN,NaN,NaN,2,0.5,001631,   NaN,337.6,     NaN,      NaN,NaN,0.2,NaN,19.013, NaN,NaN,NaN, NaN, NaN
20040714,002743,96719,32.349833,-118.537833,NaN,19.010,33.353,44.940,  NaN,0.0, NaN, NaN, NaN, NaN,23.761,412.892,17.40,1011.72,89.40,NaN,334.0,NaN,8.8,NaN,311.0,NaN,8.5,NaN,NaN, NaN,NaN,69.0,NaN,NaN,NaN,2,0.7,001661,   NaN,337.9,     NaN,      NaN,NaN,0.2,NaN,19.015, NaN,NaN,NaN, NaN, NaN
20040714,002813,96749,32.350000,-118.537500,NaN,19.006,33.353,44.936,  NaN,0.0, NaN, NaN, NaN, NaN,23.761,412.809,17.30,1011.69,88.80,NaN,326.0,NaN,8.7,NaN,304.6,NaN,8.4,NaN,NaN, NaN,NaN,59.0,NaN,NaN,NaN,2,0.7,001691,   NaN,340.2,     NaN,      NaN,NaN,0.3,NaN,19.011, NaN,NaN,NaN, NaN, NaN
20040714,002843,96779,32.350000,-118.537500,NaN,19.003,33.353,44.933,  NaN,0.0, NaN, NaN, NaN, NaN,23.762,412.750,17.40,1011.74,89.20,NaN,325.0,NaN,8.7,NaN,303.9,NaN,8.4,NaN,NaN, NaN,NaN,126.0,NaN,NaN,NaN,2,0.7,001721,   NaN,340.7,     NaN,      NaN,NaN,0.4,NaN,19.008, NaN,NaN,NaN, NaN, NaN
20040714,002913,96809,32.350000,-118.537500,NaN,19.003,33.353,44.933,  NaN,0.0, NaN, NaN, NaN, NaN,23.762,412.731,17.30,1011.66,89.00,NaN,325.0,NaN,8.2,NaN,305.0,NaN,7.9,NaN,NaN, NaN,NaN,74.0,NaN,NaN,NaN,2,0.9,001751,   NaN,341.5,     NaN,      NaN,NaN,0.2,NaN,19.007, NaN,NaN,NaN, NaN, NaN
20040714,002943,96839,32.350000,-118.537333,NaN,19.004,33.354,44.935,  NaN,0.0, NaN, NaN, NaN, NaN,23.762,412.726,17.30,1011.73,89.20,NaN,323.0,NaN,8.1,NaN,301.8,NaN,7.8,NaN,NaN, NaN,NaN,75.0,NaN,NaN,NaN,2,0.9,001781,   NaN,340.6,     NaN,      NaN,NaN,0.1,NaN,19.009, NaN,NaN,NaN, NaN, NaN
20040714,003013,96869,32.350000,-118.537167,NaN,19.005,33.353,44.935,  NaN,0.0, NaN, NaN, NaN, NaN,23.762,412.791,17.40,1011.71,89.20,NaN,326.0,NaN,9.0,NaN,306.2,NaN,8.8,NaN,NaN, NaN,NaN,80.0,NaN,NaN,NaN,2,0.7,001811,   NaN,341.3,     NaN,      NaN,NaN,0.2,NaN,19.010, NaN,NaN,NaN, NaN, NaN
20040714,003043,96899,32.350167,-118.537000,NaN,19.005,33.353,44.935,  NaN,0.0, NaN, NaN, NaN, NaN,23.762,412.769,17.30,1011.67,88.90,NaN,334.0,NaN,7.6,NaN,315.0,NaN,7.3,NaN,NaN, NaN,NaN,41.0,NaN,NaN,NaN,2,0.7,001841,   NaN,341.4,     NaN,      NaN,NaN,0.4,NaN,19.009, NaN,NaN,NaN, NaN, NaN
20040714,003113,96929,32.350167,-118.537000,NaN,19.003,33.353,44.933,  NaN,0.0, NaN, NaN, NaN, NaN,23.762,412.750,17.30,1011.65,88.90,NaN,329.0,NaN,8.1,NaN,308.0,NaN,7.8,NaN,NaN, NaN,NaN,92.0,NaN,NaN,NaN,2,0.8,001871,   NaN,340.4,     NaN,      NaN,NaN,0.3,NaN,19.008, NaN,NaN,NaN, NaN, NaN
20040714,003143,96959,32.350167,-118.536833,NaN,19.002,33.353,44.932,  NaN,0.0, NaN, NaN, NaN, NaN,23.762,412.709,17.20,1011.73,88.60,NaN,323.0,NaN,8.5,NaN,300.6,NaN,8.2,NaN,NaN, NaN,NaN,70.0,NaN,NaN,NaN,2,0.9,001901,   NaN,339.5,     NaN,      NaN,NaN,0.3,NaN,19.007, NaN,NaN,NaN, NaN, NaN
20040714,003213,96989,32.350167,-118.536833,NaN,19.002,33.353,44.932,  NaN,0.0, NaN, NaN, NaN, NaN,23.762,412.709,17.30,1011.64,88.80,NaN,327.0,NaN,8.2,NaN,303.7,NaN,8.0,NaN,NaN, NaN,NaN,120.0,NaN,NaN,NaN,2,0.6,001931,   NaN,337.9,     NaN,      NaN,NaN,0.4,NaN,19.007, NaN,NaN,NaN, NaN, NaN
20040714,003243,97019,32.350167,-118.536667,NaN,19.001,33.354,44.932,  NaN,0.0, NaN, NaN, NaN, NaN,23.763,412.667,17.30,1011.67,89.00,NaN,329.0,NaN,9.1,NaN,301.4,NaN,8.7,NaN,NaN, NaN,NaN,128.0,NaN,NaN,NaN,2,1.0,001961,   NaN,334.2,     NaN,      NaN,NaN,0.2,NaN,19.006, NaN,NaN,NaN, NaN, NaN
20040714,003313,97049,32.350333,-118.536667,NaN,19.000,33.353,44.930,  NaN,0.0, NaN, NaN, NaN, NaN,23.763,412.692,17.40,1011.67,89.20,NaN,332.0,NaN,8.2,NaN,301.5,NaN,7.9,NaN,NaN, NaN,NaN,89.0,NaN,NaN,NaN,2,0.7,001991,   NaN,330.7,     NaN,      NaN,NaN,0.4,NaN,19.005, NaN,NaN,NaN, NaN, NaN
20040714,003343,97079,32.350333,-118.536500,NaN,19.002,33.354,44.933,  NaN,0.0, NaN, NaN, NaN, NaN,23.763,412.689,17.40,1011.64,89.20,NaN,340.0,NaN,7.6,NaN,307.9,NaN,7.3,NaN,NaN, NaN,NaN,91.0,NaN,NaN,NaN,2,0.7,002021,   NaN,328.9,     NaN,      NaN,NaN,0.3,NaN,19.007, NaN,NaN,NaN, NaN, NaN
20040714,003413,97109,32.350333,-118.536500,NaN,19.001,33.353,44.932,  NaN,0.0, NaN, NaN, NaN, NaN,23.763,412.669,17.40,1011.77,88.50,NaN,337.0,NaN,8.0,NaN,303.6,NaN,7.6,NaN,NaN, NaN,NaN,97.0,NaN,NaN,NaN,2,0.9,002051,   NaN,327.5,     NaN,      NaN,NaN,0.2,NaN,19.006, NaN,NaN,NaN, NaN, NaN
20040714,003443,97139,32.350333,-118.536333,NaN,19.003,33.353,44.933,  NaN,0.0, NaN, NaN, NaN, NaN,23.762,412.709,17.30,1011.68,87.90,NaN,340.0,NaN,8.7,NaN,306.3,NaN,8.4,NaN,NaN, NaN,NaN,96.0,NaN,NaN,NaN,2,0.7,002081,   NaN,327.0,     NaN,      NaN,NaN,0.2,NaN,19.007, NaN,NaN,NaN, NaN, NaN
20040714,003513,97169,32.350333,-118.536333,NaN,19.002,33.353,44.932,  NaN,0.0, NaN, NaN, NaN, NaN,23.762,412.711,17.20,1011.68,88.40,NaN,344.0,NaN,8.0,NaN,308.4,NaN,7.7,NaN,NaN, NaN,NaN,84.0,NaN,NaN,NaN,2,0.7,002111,   NaN,325.0,     NaN,      NaN,NaN,0.2,NaN,19.006, NaN,NaN,NaN, NaN, NaN
20040714,003543,97199,32.350333,-118.536333,NaN,19.000,33.353,44.930,  NaN,0.0, NaN, NaN, NaN, NaN,23.763,412.650,17.30,1011.72,88.80,NaN,344.0,NaN,8.5,NaN,305.0,NaN,8.3,NaN,NaN, NaN,NaN,78.0,NaN,NaN,NaN,2,0.3,002141,   NaN,321.4,     NaN,      NaN,NaN,0.2,NaN,19.004, NaN,NaN,NaN, NaN, NaN
20040714,003613,97229,32.350333,-118.536167,NaN,19.000,33.353,44.930,  NaN,0.0, NaN, NaN, NaN, NaN,23.763,412.650,17.30,1011.64,88.50,NaN,348.0,NaN,8.8,NaN,306.7,NaN,8.4,NaN,NaN, NaN,NaN,124.0,NaN,NaN,NaN,2,0.6,002171,   NaN,319.3,     NaN,      NaN,NaN,0.2,NaN,19.005, NaN,NaN,NaN, NaN, NaN
20040714,003643,97259,32.350333,-118.536167,NaN,19.000,33.353,44.930,  NaN,0.0, NaN, NaN, NaN, NaN,23.763,412.629,17.20,1011.66,88.50,NaN,349.0,NaN,9.0,NaN,303.7,NaN,8.9,NaN,NaN, NaN,NaN,91.0,NaN,NaN,NaN,2,0.4,002201,   NaN,314.9,     NaN,      NaN,NaN,0.1,NaN,19.004, NaN,NaN,NaN, NaN, NaN
20040714,003713,97289,32.350333,-118.536167,NaN,18.999,33.354,44.929,  NaN,0.0, NaN, NaN, NaN, NaN,23.764,412.588,17.30,1011.70,88.90,NaN,348.0,NaN,7.4,NaN,302.6,NaN,7.2,NaN,NaN, NaN,NaN,133.0,NaN,NaN,NaN,2,0.4,002231,   NaN,314.9,     NaN,      NaN,NaN,0.3,NaN,19.003, NaN,NaN,NaN, NaN, NaN
20040714,003743,97319,32.350333,-118.536167,NaN,19.000,33.353,44.929,  NaN,0.0, NaN, NaN, NaN, NaN,23.763,412.671,17.40,1011.67,89.00,NaN,345.0,NaN,8.2,NaN,300.9,NaN,7.9,NaN,NaN, NaN,NaN,107.0,NaN,NaN,NaN,2,0.6,002261,   NaN,316.5,     NaN,      NaN,NaN,0.1,NaN,19.004, NaN,NaN,NaN, NaN, NaN
20040714,003813,97349,32.350333,-118.536000,NaN,18.999,33.353,44.929,  NaN,0.0, NaN, NaN, NaN, NaN,23.763,412.672,17.30,1011.60,88.50,NaN,337.0,NaN,8.1,NaN,303.8,NaN,7.7,NaN,NaN, NaN,NaN,135.0,NaN,NaN,NaN,2,0.8,002291,   NaN,328.3,     NaN,      NaN,NaN,0.0,NaN,19.004, NaN,NaN,NaN, NaN, NaN
20040714,003843,97379,32.350333,-118.535833,NaN,19.000,33.353,44.929,  NaN,0.0, NaN, NaN, NaN, NaN,23.763,412.671,17.20,1011.66,88.60,NaN,318.0,NaN,8.2,NaN,298.7,NaN,7.9,NaN,NaN, NaN,NaN,120.0,NaN,NaN,NaN,2,1.0,002321,   NaN,343.2,     NaN,      NaN,NaN,-0.1,NaN,19.004, NaN,NaN,NaN, NaN, NaN
20040714,003913,97409,32.350167,-118.535833,NaN,19.014,33.353,44.943,  NaN,0.0, NaN, NaN, NaN, NaN,23.759,412.993,17.30,1011.54,89.50,NaN,300.0,NaN,8.5,NaN,295.4,NaN,8.2,NaN,NaN, NaN,NaN,120.0,NaN,NaN,NaN,2,1.3,002351,   NaN,359.1,     NaN,      NaN,NaN,-0.1,NaN,19.018, NaN,NaN,NaN, NaN, NaN
20040714,003943,97439,32.350167,-118.535500,NaN,19.006,33.353,44.937,  NaN,0.0, NaN, NaN, NaN, NaN,23.762,412.788,17.30,1011.50,89.20,NaN,293.0,NaN,8.3,NaN,301.5,NaN,8.1,NaN,NaN, NaN,NaN,119.0,NaN,NaN,NaN,2,1.3,002381,   NaN,13.2,     NaN,      NaN,NaN,0.2,NaN,19.011, NaN,NaN,NaN, NaN, NaN
20040714,004013,97469,32.350167,-118.535333,NaN,19.003,33.353,44.932,  NaN,0.0, NaN, NaN, NaN, NaN,23.762,412.751,17.40,1011.56,89.30,NaN,284.0,NaN,8.8,NaN,299.0,NaN,8.7,NaN,NaN, NaN,NaN,107.0,NaN,NaN,NaN,2,1.1,002411,   NaN,18.8,     NaN,      NaN,NaN,0.7,NaN,19.007, NaN,NaN,NaN, NaN, NaN
20040714,004043,97499,32.350000,-118.535167,NaN,19.001,33.353,44.932,  NaN,0.0, NaN, NaN, NaN, NaN,23.763,412.669,17.40,1011.54,89.30,NaN,294.0,NaN,8.1,NaN,304.2,NaN,7.9,NaN,NaN, NaN,NaN,79.0,NaN,NaN,NaN,2,1.2,002441,   NaN,15.0,     NaN,      NaN,NaN,0.6,NaN,19.006, NaN,NaN,NaN, NaN, NaN